Helicity
68 92 103 84 112 152 150 123 150 71 44 24 39 76 94 87 67 46 38 20 21 26 16 16 18 19 37 59 66 24 -22 -16 -21 3 32 158 200 96 177 109 155 100 134 92 198 267 333
52 66 100 110 117 181 225 174 153 112 36 38 45 91 93 77 62 44 36 17 18 16 7 7 16 19 60 74 43 45 -11 -8 10 30 -1 120 243 153 109 137 121 140 131 134 158 173 343
59 59 56 68 110 162 260 266 181 120 81 71 61 113 90 69 62 40 28 11 11 2 -3 6 13 34 51 7 44 72 22 6 -2 14 17 182 156 234 173 155 118 136 44 161 211 135 289
40 54 49 46 60 85 304 288 218 172 51 72 81 115 78 72 56 27 23 3 2 -11 -6 4 9 38 43 36 59 97 34 13 20 17 13 41 120 172 173 203 191 146 148 96 146 470 222
43 48 43 38 42 39 247 277 233 122 83 100 110 103 86 65 43 21 16 6 -8 -14 -6 4 24 57 35 75 62 18 6 37 35 26 33 36 39 124 142 212 287 204 -27 122 154 73 87
22 39 38 38 43 24 203 232 228 80 104 108 116 97 99 55 35 28 17 -16 3 -11 -2 19 20 26 36 72 43 18 22 33 49 39 52 107 121 140 238 215 184 163 93 80 101 98 80
117 31 45 33 49 61 172 222 171 101 116 109 105 114 86 54 23 26 32 56 93 68 12 43 32 42 45 66 35 13 20 47 44 47 102 76 71 80 284 180 152 121 132 95 82 10 84
123 146 47 43 37 87 170 201 119 127 130 109 117 102 83 39 21 24 30 91 87 34 11 52 24 40 52 49 31 18 28 46 47 75 82 60 41 129 195 264 135 60 44 67 35 -21 14
136 146 129 26 42 87 157 183 110 124 132 101 112 106 64 30 27 49 39 36 14 -13 29 41 30 23 39 16 32 48 33 21 43 86 57 82 -32 161 183 164 191 152 79 77 107 88 24
129 125 115 91 32 96 179 186 119 116 117 100 99 91 53 28 43 64 50 41 0 -9 57 16 24 44 25 94 61 41 27 12 56 66 132 112 43 20 83 98 90 123 46 24 116 130 149
77 124 83 100 65 96 203 147 129 99 109 84 93 71 38 46 44 57 34 12 -12 6 71 17 3 37 77 73 38 72 54 70 50 102 113 146 85 60 90 101 103 84 81 68 106 121 128
19 162 89 33 113 109 195 137 135 101 87 81 79 52 55 61 46 23 5 -22 -8 65 26 -21 24 43 71 18 73 106 285 147 40 70 115 237 170 180 189 153 62 128 234 175 181 108 123
59 163 258 -61 121 111 210 183 109 80 61 101 70 51 67 40 57 36 3 14 81 66 -19 -27 -8 37 49 42 79 105 112 93 74 103 165 216 262 252 168 145 138 175 183 170 302 257 120
29 -4 238 -145 74 155 223 171 113 67 75 107 94 78 46 28 6 13 4 35 87 43 -13 -35 -2 37 41 14 61 73 79 91 55 65 120 163 147 200 258 256 179 158 122 67 68 94 150
73 100 98 -65 62 186 220 132 78 68 99 102 101 66 65 8 -2 1 15 84 46 16 -35 -30 0 10 14 32 43 59 112 96 80 95 98 192 134 176 221 247 180 175 189 136 145 171 171
255 136 31 -16 72 197 206 162 83 116 102 76 116 100 58 7 -8 0 29 55 23 -11 -27 -18 -6 -4 -6 26 44 79 65 87 93 127 108 102 79 110 109 163 147 146 120 201 220 186 177
179 41 33 81 265 255 210 147 116 50 71 53 136 118 22 -5 -14 2 91 22 7 -15 -20 -70 -16 -19 7 47 48 56 82 59 51 120 122 115 90 131 116 125 115 116 132 162 155 156 167
80 106 50 143 274 327 230 159 109 72 70 77 110 84 6 -20 77 19 60 -4 -3 -14 -23 -50 -35 9 12 18 50 32 70 90 85 64 85 42 89 101 57 109 107 62 84 100 89 131 149
16 107 6 115 201 117 217 164 67 38 67 124 129 33 1 -13 117 95 22 -28 -16 -10 -23 -39 -33 -15 38 14 -13 22 72 94 78 148 87 76 52 95 90 80 69 59 62 91 81 76 105
75 96 -13 175 183 168 202 140 46 61 -7 98 77 55 -5 -9 -9 51 97 33 -23 -21 -23 -17 -22 15 -2 -12 14 37 52 41 60 78 121 98 56 39 62 59 54 43 31 52 82 69 65
40 37 -13 222 40 249 196 113 68 -18 -39 102 48 -6 18 74 -6 20 11 39 7 -14 -18 -21 -11 18 1 -22 34 35 35 36 40 64 70 62 76 63 63 68 76 71 62 71 84 59 84
-2 16 63 362 123 250 203 39 108 -37 -39 43 43 14 -1 25 5 30 13 20 20 -14 -11 -8 1 -12 18 -15 -18 36 29 36 28 37 44 46 57 41 38 37 47 43 46 41 34 47 33
-13 -5 79 345 176 90 214 129 104 102 94 61 65 58 24 46 47 51 11 29 29 -21 -18 -2 8 13 20 11 47 38 17 28 24 33 44 41 39 37 17 28 36 29 16 28 56 86 53
33 0 51 320 20 109 188 70 70 40 4 54 87 59 55 26 57 20 12 9 3 -35 -15 6 -17 -17 2 -18 67 54 49 51 71 67 67 66 80 77 59 82 66 46 67 87 142 187 207
27 15 127 533 94 82 73 129 20 -25 -32 39 87 45 56 37 6 29 26 11 3 -28 -32 -35 -39 -1 -18 13 -2 -8 -8 6 60 71 72 50 69 81 87 69 67 69 77 91 100 130 139
46 27 122 224 286 17 -20 90 -23 -25 -19 15 62 73 69 135 98 127 39 9 55 10 -26 -36 -18 -24 -22 -14 -21 -11 -5 -17 -31 31 50 57 60 72 86 102 75 70 69 71 79 93 99
44 -39 168 280 -34 28 25 10 38 -1 31 51 66 87 86 91 194 169 21 19 -37 -52 -27 -30 -19 -31 -36 -32 -10 -8 -19 -28 -30 -50 -55 42 67 61 71 80 88 78 75 82 99 73 98
41 72 378 6 97 42 91 82 15 13 61 63 78 115 94 63 230 186 125 2 -17 -49 1 -15 -19 -50 -34 4 -3 -6 -16 -18 -21 -16 -29 -36 -51 -54 22 20 39 57 73 63 53 67 62
28 22 285 313 74 86 85 43 12 29 82 59 102 155 131 93 141 117 135 158 80 -28 -37 -25 -37 -24 -19 -12 -19 -8 -7 -11 8 4 9 -22 13 -7 49 41 58 104 126 109 98 57 30
Wind_Speed
50 45 45 45 48 48 49 51 55 58 59 64 65 64 61 52 54 53 52 44 34 35 33 38 43 46 41 31 30 26 41 39 40 47 53 49 66 73 75 83 77 75 58 65 61 48 44
52 48 45 43 47 45 44 46 49 52 58 60 61 59 58 52 50 51 48 43 36 37 34 38 38 42 33 36 32 26 39 43 41 44 46 48 55 68 71 73 87 66 50 56 67 62 47
52 59 55 56 45 45 40 41 46 48 55 58 58 55 56 52 53 50 45 43 34 31 34 34 33 34 31 24 32 38 42 44 40 43 49 55 44 57 55 70 73 55 58 62 39 53 65
44 52 62 57 59 53 39 36 41 44 49 55 55 54 50 51 51 48 43 41 30 28 28 28 29 32 32 28 34 40 44 39 40 36 45 50 46 56 55 54 66 78 47 63 54 49 47
51 51 54 65 58 66 39 33 38 41 48 51 52 51 48 50 47 46 41 39 28 25 24 25 29 30 35 28 32 38 49 47 38 36 38 45 51 53 57 61 70 74 80 70 59 47 45
69 57 56 60 64 62 36 32 37 39 47 50 51 50 47 49 47 46 43 34 27 27 26 26 25 33 27 27 31 34 32 38 44 40 45 48 58 55 54 68 84 86 83 74 74 58 49
95 80 64 59 61 61 35 32 34 37 44 46 47 47 45 47 46 44 41 38 39 36 32 34 34 29 29 32 31 32 30 35 37 42 53 57 64 68 65 67 52 49 56 67 59 43 54
102 98 81 64 58 48 35 32 31 33 42 44 43 45 42 45 42 39 33 35 38 33 40 32 30 25 19 32 28 24 28 33 43 50 47 53 84 60 52 54 55 57 47 60 55 56 54
104 104 97 74 62 46 35 37 30 32 40 41 41 40 40 41 39 34 30 32 32 33 39 40 34 31 30 29 18 25 32 36 37 51 53 54 60 56 58 58 61 58 60 56 53 50 40
110 105 102 91 65 44 36 34 27 31 37 39 37 35 37 36 33 33 33 32 33 32 46 47 40 33 25 34 23 26 30 34 45 44 38 44 52 49 63 67 55 60 67 48 35 38 49
111 109 104 94 86 46 38 33 23 30 34 36 34 31 32 28 31 33 33 34 32 36 68 43 38 26 26 24 23 24 33 35 34 48 38 36 41 53 36 59 46 53 53 46 31 39 37
115 109 103 93 92 44 37 32 22 26 29 33 34 27 29 29 28 29 33 34 36 49 63 45 36 38 31 11 17 34 34 40 32 19 18 34 35 33 24 29 37 33 30 35 39 47 43
114 106 99 94 88 46 35 30 26 23 25 30 30 26 27 27 30 33 35 35 49 58 40 44 42 41 44 15 21 24 27 25 25 30 30 44 42 35 27 25 21 30 37 44 44 43 47
109 108 94 86 85 45 35 29 18 19 18 23 24 27 29 28 32 34 34 40 57 47 42 39 42 41 44 22 19 30 34 28 23 22 28 44 43 36 30 28 40 38 41 53 48 52 48
101 102 89 86 86 45 36 30 16 14 11 14 21 27 28 30 33 34 34 48 45 42 41 43 44 45 45 23 24 28 33 30 29 29 31 35 29 38 33 30 29 40 41 33 37 36 42
93 90 78 81 86 47 37 30 15 5 5 16 20 26 28 30 32 34 36 43 41 39 38 40 40 39 44 45 26 29 33 30 29 25 24 19 25 33 35 30 26 25 28 43 35 46 47
93 73 66 77 85 46 36 32 14 8 7 23 18 23 28 31 34 34 41 41 42 39 38 40 42 45 45 43 37 25 32 28 28 23 21 25 20 21 30 30 31 31 34 33 32 33 40
89 72 68 71 60 45 36 31 18 15 13 5 22 26 33 36 35 33 39 38 44 41 38 40 44 43 41 40 22 28 25 27 28 27 22 20 19 28 33 37 39 34 35 30 35 39 32
80 65 67 70 72 69 40 32 23 22 25 25 20 29 38 37 34 37 39 42 40 42 39 43 41 40 35 36 32 28 27 24 27 32 30 30 24 20 31 38 37 42 47 40 37 35 38
76 69 66 71 76 57 44 29 29 29 42 39 33 22 39 39 33 37 42 41 43 39 41 39 41 41 40 41 23 32 29 29 23 24 27 28 28 31 20 34 27 32 34 30 29 34 35
73 68 67 70 70 52 43 35 32 27 67 43 40 39 21 31 38 40 39 43 47 44 40 42 40 38 38 40 18 22 26 25 27 26 25 27 25 24 23 25 23 27 25 19 26 28 37
72 66 65 55 41 51 43 66 27 35 74 51 41 32 31 23 39 44 40 43 46 45 44 40 38 40 39 41 40 19 24 27 32 26 28 27 23 23 27 28 30 32 33 37 36 46 55
70 67 60 62 71 79 34 42 25 31 52 50 43 34 22 23 37 43 42 43 46 47 42 43 46 47 46 41 31 15 18 23 20 14 21 23 20 25 32 34 37 44 42 39 29 33 45
72 63 61 62 67 72 36 28 37 48 75 44 42 34 23 18 34 43 43 45 46 42 45 43 44 41 40 36 15 23 18 21 22 25 26 24 26 30 33 34 43 35 33 33 28 35 31
69 63 57 52 37 74 47 25 54 68 92 45 40 40 25 51 38 37 43 43 46 47 45 43 38 43 43 42 45 40 35 20 26 27 28 24 22 30 36 39 38 35 35 36 37 39 39
67 63 61 64 74 83 84 30 66 72 85 49 40 36 27 7 45 23 40 43 45 43 42 41 40 42 40 38 36 34 33 33 32 16 31 29 30 30 28 36 43 38 36 39 36 48 44
68 61 67 77 71 76 76 62 59 67 65 47 39 34 24 22 24 20 42 45 41 40 41 41 42 40 37 36 35 34 32 33 30 30 29 13 30 25 35 38 38 41 44 39 42 45 42
63 57 51 43 42 43 33 51 56 62 57 47 38 35 30 24 20 18 15 24 35 37 41 41 41 37 38 37 34 32 31 30 29 30 28 27 25 21 8 5 22 40 35 38 34 38 46
64 61 63 48 55 39 40 48 46 52 48 44 38 21 10 14 15 11 15 18 18 28 36 38 36 39 37 36 34 33 31 30 29 25 22 23 16 19 12 11 27 36 29 33 38 44 53
Wind_Direction
337 337 338 340 339 339 342 345 347 350 351 353 355 357 359 1 360 359 1 5 5 11 11 8 2 359 7 8 359 9 290 278 262 247 234 233 223 220 222 220 221 225 236 230 229 234 235
336 336 334 334 333 333 336 343 346 348 350 353 354 358 359 359 360 360 3 7 8 12 12 7 7 6 13 359 11 10 305 272 268 255 242 231 230 226 225 224 217 224 227 234 225 230 237
334 333 334 332 331 331 330 337 342 345 349 352 355 358 359 0 360 1 4 8 9 13 14 13 15 15 10 8 7 334 308 275 262 247 233 226 236 224 233 221 217 219 223 228 214 226 237
331 332 331 332 331 333 327 331 340 345 347 352 356 358 1 1 360 3 6 8 13 18 21 24 25 22 15 29 2 334 297 272 262 255 237 229 241 228 229 223 216 220 231 219 230 233 243
328 329 330 329 333 329 329 331 339 343 348 352 356 359 2 1 2 5 9 10 20 28 33 37 36 35 22 37 15 359 284 251 251 249 241 227 228 226 223 214 214 220 227 228 231 239 254
324 325 327 328 330 330 332 334 337 343 347 351 356 359 2 1 5 8 11 19 34 38 48 55 46 29 41 37 28 25 290 251 237 238 228 223 216 221 217 211 213 218 223 229 231 237 241
317 320 321 323 327 330 326 333 337 342 346 352 356 1 4 4 7 13 22 35 37 41 49 38 34 35 42 39 51 38 269 236 234 228 217 214 212 221 211 215 218 217 226 228 234 249 254
312 313 315 318 321 324 322 328 335 341 346 351 358 2 7 6 11 19 36 43 42 52 34 46 46 55 102 59 65 257 230 223 221 213 214 215 212 222 223 221 221 224 228 225 230 233 244
309 309 307 310 313 314 316 318 330 338 346 352 359 6 8 11 20 38 52 44 57 58 41 42 54 62 75 95 166 216 212 208 215 202 212 215 216 227 219 220 223 227 224 230 233 239 250
304 304 305 304 306 304 304 308 326 335 345 351 1 11 11 19 40 52 49 58 64 69 36 37 54 76 138 96 188 200 218 210 190 197 202 212 211 219 219 220 227 230 223 226 231 231 244
300 298 298 301 299 296 293 298 322 331 345 352 4 16 17 33 49 55 55 62 71 67 19 45 66 151 160 173 207 218 195 192 184 187 213 217 204 198 200 215 224 239 221 225 227 245 254
299 296 293 296 292 285 284 291 311 328 346 353 2 23 30 49 60 66 62 67 70 40 27 53 83 100 127 251 200 183 186 188 195 186 201 196 204 215 209 210 221 222 201 217 230 236 243
293 291 289 292 286 274 269 281 299 320 343 356 11 41 51 59 66 74 71 73 44 38 58 61 85 106 112 202 183 196 190 196 204 200 187 186 200 219 221 216 215 211 203 215 227 236 242
289 285 284 288 285 261 254 268 282 314 347 7 34 41 43 64 68 80 79 63 41 52 68 93 96 110 108 215 211 201 190 187 197 194 188 190 191 207 232 242 228 224 235 234 239 241 245
288 279 275 283 281 247 243 256 263 306 6 43 54 41 67 86 76 86 83 51 58 67 84 93 102 93 106 199 205 203 198 198 196 205 200 202 209 212 221 234 237 235 239 258 251 261 252
293 277 274 275 273 236 233 244 248 273 30 100 44 47 81 91 89 100 76 63 68 87 90 105 99 108 108 149 218 218 217 230 221 217 216 225 212 227 228 242 254 254 254 244 260 249 253
299 288 272 268 270 225 224 237 199 243 125 122 350 39 111 106 112 92 70 73 80 96 90 98 108 111 122 152 185 241 226 230 231 243 247 234 265 263 242 252 250 254 253 262 267 269 261
300 284 268 270 284 219 215 227 189 161 145 299 300 334 126 125 91 95 88 93 91 93 101 107 118 116 131 170 214 218 238 248 240 239 255 270 261 236 252 255 256 262 254 265 260 259 276
291 280 269 269 274 228 215 219 178 164 155 260 284 265 155 147 90 99 102 103 99 98 106 110 119 127 158 169 192 210 229 245 242 245 255 254 272 292 274 265 266 257 245 257 271 275 267
283 278 274 268 265 222 217 191 167 164 157 239 250 291 190 154 135 110 109 107 101 105 113 111 120 133 128 124 229 210 218 232 260 268 276 287 272 277 296 272 281 269 266 272 279 272 271
278 274 276 270 246 213 214 173 159 172 168 234 238 240 132 113 133 124 119 111 105 102 119 123 122 131 133 131 35 250 243 244 250 259 274 272 283 294 301 302 305 294 282 276 278 280 273
274 272 278 280 226 215 215 168 182 160 206 228 233 250 176 67 115 121 124 121 114 107 117 119 123 120 80 123 146 283 257 257 248 273 276 289 294 303 300 310 301 298 288 280 277 274 271
269 270 268 267 256 220 198 158 198 197 216 225 232 241 258 87 110 118 128 121 117 112 113 115 121 118 116 100 53 357 287 278 303 342 302 299 314 298 289 295 292 283 279 284 302 293 279
268 265 276 267 237 215 174 181 218 214 206 232 231 236 265 86 117 127 123 110 112 118 117 121 117 124 124 95 288 15 347 311 303 300 302 306 306 308 304 304 289 308 315 311 303 303 315
265 260 269 272 216 213 195 175 220 213 197 232 233 232 261 159 122 116 114 107 98 95 109 120 125 126 111 110 128 135 138 82 317 315 309 316 326 312 301 296 306 310 311 308 304 305 315
259 263 259 251 239 211 202 215 214 211 203 228 234 239 256 96 197 259 114 118 115 111 107 114 132 135 131 140 138 130 129 140 142 12 308 314 317 319 319 309 301 309 315 317 318 299 316
260 261 261 255 219 206 205 213 217 212 212 223 232 240 253 249 261 269 128 129 120 112 106 110 121 129 143 130 126 126 130 144 138 147 156 3 319 325 311 311 314 312 311 317 304 307 321
248 252 259 226 206 214 216 216 216 211 213 221 230 238 238 249 268 283 298 83 103 105 115 115 109 120 123 119 120 123 121 140 134 143 157 154 156 164 40 340 316 322 326 317 324 325 320
242 241 245 236 211 215 216 216 217 211 214 221 228 236 255 264 264 5 8 340 2 69 97 109 104 110 111 110 112 114 114 126 127 126 112 145 110 136 45 12 339 334 345 341 336 325 321